Location: ?astrovice
(49.6513°N, 14.9287°E)
Time: 02:18:27
(UTC+00:00)

X-37B - Pass Details

Date: 05 August 2021
Orbit: 381 x 393 km, 45.0° (Epoch: 29 August)

Event Time Altitude Azimuth Distance (km) Brightness Sun altitude
Exits shadow 01:20:29 13° 136° (SE) 1,215 2.9 -17.1°
Drops below altitude 10° 01:21:29 10° 119° (ESE) 1,396 3.4 -17.0°
Sets 01:24:12 0° 93° (E) 2,252 4.9 -16.8°
